EW6342 Weather Reports


time (UTC)temp
C
wind
direction
speed
KPH
gust
KPH
rain 1hr
cm
rain 24hr
cm
rain mn
cm
humidity
%
barometer
mb
20220930154049 23 63 4.8 14.5 0.00 0.00 0.00 40 1018.5
20220930152556 23 55 3.2 11.3 0.00 0.00 0.00 42 1018.6
20220930151102 22 83 4.8 11.3 0.00 0.00 0.00 44 1018.6
20220930145551 21 78 3.2 11.3 0.00 0.00 0.00 50 1018.7
20220930144038 20 49 3.2 6.4 0.00 0.00 0.00 55 1018.6
20220930142606 18 30 3.2 6.4 0.00 0.00 0.00 63 1018.6
20220930141133 16 43 1.6 8.0 0.00 0.00 0.00 72 1018.7
20220930135539 15 57 1.6 4.8 0.00 0.00 0.00 78 1018.7
20220930134051 13 48 1.6 6.4 0.00 0.00 0.00 78 1018.7
20220930132559 13 67 0.0 1.6 0.00 0.00 0.00 79 1018.8
20220930131045 12 67 0.0 1.6 0.00 0.00 0.00 80 1018.6
20220930125553 12 67 0.0 1.6 0.00 0.00 0.00 81 1018.5
20220930124102 12 67 0.0 0.0 0.00 0.00 0.00 81 1018.4
20220930122553 12 67 0.0 0.0 0.00 0.00 0.00 80 1018.3
20220930121121 12 67 0.0 0.0 0.00 0.00 0.00 80 1018.3
20220930115626 12 67 0.0 0.0 0.00 0.00 0.00 79 1018.3
20220930115544 12 67 0.0 0.0 0.00 0.00 0.00 79 1018.3
20220930114052 12 67 0.0 0.0 0.00 0.00 0.00 79 1018.1
20220930112600 12 67 0.0 1.6 0.00 0.00 0.00 79 1018.1
20220930111127 12 71 0.0 1.6 0.00 0.00 0.00 78 1018.1
20220930111045 12 71 0.0 1.6 0.00 0.00 0.00 78 1018.1
20220930105556 12 71 0.0 1.6 0.00 0.00 0.00 76 1018.1
20220930104122 13 71 0.0 0.0 0.00 0.00 0.00 75 1018.1
20220930104040 13 71 0.0 0.0 0.00 0.00 0.00 75 1018.1
20220930102608 13 71 0.0 0.0 0.00 0.00 0.00 73 1018.2
20220930101133 13 71 0.0 0.0 0.00 0.00 0.00 73 1018.3
20220930101051 13 71 0.0 0.0 0.00 0.00 0.00 73 1018.3
20220930095538 14 71 0.0 0.0 0.00 0.00 0.00 72 1018.3
20220930094045 14 71 0.0 0.0 0.00 0.00 0.00 71 1018.3
20220930092556 14 71 0.0 0.0 0.00 0.00 0.00 70 1018.3
20220930091044 15 71 0.0 0.0 0.00 0.00 0.00 69 1018.3
20220930085611 15 71 0.0 0.0 0.00 0.00 0.00 68 1018.4
20220930084114 15 71 0.0 0.0 0.00 0.00 0.00 67 1018.5
20220930082545 15 71 0.0 0.0 0.00 0.00 0.00 66 1018.4
20220930081051 16 71 0.0 0.0 0.00 0.00 0.00 64 1018.5
20220930075556 16 71 0.0 0.0 0.00 0.00 0.00 64 1018.5
20220930074102 16 71 0.0 0.0 0.00 0.00 0.00 62 1018.6
20220930072609 17 71 0.0 1.6 0.00 0.00 0.00 61 1018.4
20220930071038 17 73 0.0 1.6 0.00 0.00 0.00 59 1018.3
20220930065605 17 58 0.0 3.2 0.00 0.00 0.00 60 1018.4
20220930064050 18 42 0.0 4.8 0.00 0.00 0.00 58 1018.4
20220930062615 18 63 0.0 4.8 0.00 0.00 0.00 59 1018.3
20220930061105 18 72 1.6 4.8 0.00 0.00 0.00 58 1018.3
20220930055551 18 44 1.6 4.8 0.00 0.00 0.00 59 1018.2
20220930054040 18 86 1.6 4.8 0.00 0.00 0.00 60 1018.2
20220930052608 18 88 0.0 3.2 0.00 0.00 0.00 61 1018.2
20220930051114 18 75 0.0 1.6 0.00 0.00 0.00 61 1018.2
20220930045605 18 75 1.6 1.6 0.00 0.00 0.00 58 1018.0
20220930044052 18 75 0.0 1.6 0.00 0.00 0.00 56 1018.1
20220930042541 19 75 0.0 1.6 0.00 0.00 0.00 55 1018.1
20220930041130 19 75 0.0 0.0 0.00 0.00 0.00 57 1018.1
20220930035554 20 75 0.0 1.6 0.00 0.00 0.00 53 1018.1
20220930034106 20 75 0.0 1.6 0.00 0.00 0.00 56 1018.0
20220930032634 20 75 0.0 0.0 0.00 0.00 0.00 51 1018.0
20220930032551 20 75 0.0 0.0 0.00 0.00 0.00 51 1018.0
20220930031039 21 74 0.0 1.6 0.00 0.00 0.00 51 1017.9
20220930025547 21 74 0.0 1.6 0.00 0.00 0.00 54 1017.8
20220930024040 21 81 0.0 1.6 0.00 0.00 0.00 52 1017.7
20220930022546 22 81 0.0 3.2 0.00 0.00 0.00 52 1017.6
20220930021051 22 69 1.6 3.2 0.00 0.00 0.00 52 1017.5
20220930015637 22 68 0.0 0.0 0.00 0.00 0.00 53 1017.3
20220930015554 22 68 0.0 0.0 0.00 0.00 0.00 53 1017.3
20220930014041 22 68 0.0 1.6 0.00 0.00 0.00 53 1017.4
20220930012610 23 67 0.0 0.0 0.00 0.00 0.00 50 1017.3
20220930011040 23 67 0.0 1.6 0.00 0.00 0.00 49 1017.2
20220930005548 23 58 1.6 4.8 0.00 0.00 0.00 47 1017.1
20220930004055 24 45 1.6 3.2 0.00 0.00 0.00 45 1017.0
20220930002538 25 51 0.0 0.0 0.00 0.00 0.00 44 1017.1
20220930001050 26 51 0.0 1.6 0.00 0.00 0.00 42 1017.1
20220929235558 26 51 0.0 1.6 0.00 0.00 0.00 41 1017.0